User: anonymous   Login
Location: Unspecified
(0.0000°N, 0.0000°E)
Time: 12:47:56
(UTC+00:00)
Language:

USA 290 - Orbit

View from above orbital plane
View from above orbital plane
View from above satellite
View from above satellite

Ground track
Ground track

The orbit data is extracted from the following two-line orbital elements,

1 43941U 19004A   20362.69924877 0.00003000  00000-0  46806-4 0    04
2 43941  73.5884 315.7434 0009485 227.1695 132.8304 15.53659137    09
Epoch (UTC): 27 December 2020 16:46:55
Eccentricity: 0.0009485
inclination: 73.5884°
perigee height: 399 km
apogee height: 412 km
right ascension of ascending node: 315.7434°
argument of perigee: 227.1695°
revolutions per day: 15.53659137
mean anomaly at epoch: 132.8304°
orbit number at epoch: 0

The dashed part of the orbit path shows where the satellite is in the earth's shadow,  

DLR